NOAA NWS Hourly Roundups by Site

Regional Weather Roundup for Norman, OK

To Select Another Site Choose from List

Select Site:  

000
ASUS44 KOUN 212000
RWROK

WEATHER ROUNDUP FOR OKLAHOMA
NATIONAL WEATHER SERVICE NORMAN OK
300 PM CDT WED APR 21 2021

NOTE: "FAIR" INDICATES FEW OR NO CLOUDS BELOW 12,000 FEET WITH NO
      SIGNIFICANT WEATHER AND/OR OBSTRUCTIONS TO VISIBILITY.

OKZ001>007-009>012-014-015-017-212100-
NORTHWEST OKLAHOMA AND THE PANHANDLE

CITY           SKY/WX    TMP DP  RH WIND       PRES   REMARKS
GAGE           MOSUNNY   55  17  22 E5        30.24F
GUYMON         MOSUNNY   53  19  26 S10       30.18F
ENID/WOODRING  MOSUNNY   57  25  28 N15       30.27F
$$

OKZ016-021>023-033>039-044-045-212100-
SOUTHWEST OKLAHOMA

CITY           SKY/WX    TMP DP  RH WIND       PRES   REMARKS
LAWTON/REGL    SUNNY     62  24  23 VRB5      30.26F
LAWTON/FT SILL SUNNY     60  26  27 N6        30.25F
FREDERICK      SUNNY     58  27  30 CALM      30.24
CLINTON        SUNNY     55  21  26 W6        30.26F
HOBART         SUNNY     60  20  21 E9        30.26F
ALTUS AFB      SUNNY     57  25  29 S6        30.25F
$$

OKZ018>020-024>031-212100-
CENTRAL OKLAHOMA

CITY           SKY/WX    TMP DP  RH WIND       PRES   REMARKS
OKLAHOMA CITY  MOSUNNY   57  20  23 VRB6      30.27F
OKC/TINKER AFB SUNNY     58  21  24 NW13      30.26F
STILLWATER     SUNNY     60  24  25 NW13      30.28F
GUTHRIE        SUNNY     57  23  26 N13       30.28F
$$

OKZ008-013-054>072-212100-
NORTHEAST OKLAHOMA

CITY           SKY/WX    TMP DP  RH WIND       PRES   REMARKS
TULSA          MOSUNNY   60  25  26 W14G22    30.27F
TULSA/JONES    MOSUNNY   58  24  27 W9        30.27F
PONCA CITY     MOSUNNY   57  24  28 N6        30.28F
BARTLESVILLE   MOSUNNY   59  28  30 VRB5      30.29F
MUSKOGEE       SUNNY     59  27  29 VRB7      30.28F
$$

OKZ032-040>043-046>053-073>077-212100-
SOUTH CENTRAL/SOUTHEAST OKLAHOMA

CITY           SKY/WX    TMP DP  RH WIND       PRES   REMARKS
ARDMORE/DWNTWN SUNNY     61  26  26 N9        30.26F
MCALESTER      SUNNY     61  22  22 NW14      30.27F
$$



 

View Past Reports for Norman, OK.

Products Courtesy of NOAA-NWS
NWS Information Parsing Script by Ken True at Saratoga Weather - Script by SE Lincoln Weather.